• In Hungary
  • List of Countries
  • For 7 days
  • Water Temperature
  • Satellite Maps
  • Weather Map
  • News
  • Weather Widgets
  • user-avatar
    Login

    Hourly Weather Chukiv

    Today, 11 December, Monday

    Time Temperature Precipitation Wind Pressure Humidity
    00:00 -7°C° 0 mm 4 mps 733 mmHg 88%
    01:00 -7°C° 0 mm 4 mps 734 mmHg 88%
    02:00 -7°C° 0 mm 3 mps 733 mmHg 90%
    03:00 -8°C° 0 mm 4 mps 733 mmHg 87%
    04:00 -7°C° 0 mm 5 mps 733 mmHg 85%
    05:00 -6°C° 0 mm 6 mps 733 mmHg 82%
    06:00 -6°C° 0 mm 5 mps 733 mmHg 81%
    07:00 -6°C° 0 mm 5 mps 733 mmHg 80%
    08:00 -5°C° 0 mm 4 mps 733 mmHg 79%
    09:00 -4°C° 0 mm 4 mps 733 mmHg 77%
    10:00 -4°C° 0 mm 5 mps 733 mmHg 75%
    11:00 -2°C° 0 mm 5 mps 734 mmHg 74%
    12:00 -1°C° 0.1 mm 5 mps 734 mmHg 76%
    13:00 -1°C° 0.1 mm 5 mps 734 mmHg 79%
    14:00 -1°C° 0 mm 4 mps 733 mmHg 84%
    15:00 0°C° 0 mm 4 mps 733 mmHg 85%
    16:00 0°C° 0 mm 4 mps 734 mmHg 85%
    17:00 0°C° 0 mm 5 mps 734 mmHg 85%
    18:00 0°C° 0 mm 4 mps 734 mmHg 85%
    19:00 0°C° 0 mm 4 mps 734 mmHg 84%
    20:00 0°C° 0 mm 4 mps 734 mmHg 83%
    21:00 0°C° 0 mm 4 mps 734 mmHg 83%
    22:00 0°C° 0 mm 4 mps 735 mmHg 83%
    23:00 0°C° 0 mm 4 mps 735 mmHg 83%

    Tomorrow, 12 December, Tuesday

    Time Temperature Precipitation Wind Pressure Humidity
    00:00 0°C° 0 mm 4 mps 735 mmHg 82%
    01:00 0°C° 0 mm 4 mps 735 mmHg 82%
    02:00 +1°C° 0 mm 3 mps 735 mmHg 82%
    03:00 0°C° 0 mm 4 mps 735 mmHg 82%
    04:00 0°C° 0 mm 4 mps 735 mmHg 82%
    05:00 0°C° 0 mm 4 mps 735 mmHg 83%
    06:00 0°C° 0 mm 4 mps 736 mmHg 82%
    07:00 0°C° 0 mm 4 mps 736 mmHg 82%
    08:00 +1°C° 0 mm 4 mps 736 mmHg 82%
    09:00 +1°C° 0 mm 4 mps 736 mmHg 81%
    10:00 +2°C° 0 mm 5 mps 736 mmHg 81%
    11:00 +3°C° 0 mm 5 mps 736 mmHg 81%
    12:00 +5°C° 0 mm 5 mps 736 mmHg 80%
    13:00 +5°C° 0 mm 5 mps 736 mmHg 79%
    14:00 +5°C° 0 mm 4 mps 737 mmHg 77%
    15:00 +5°C° 0 mm 4 mps 737 mmHg 78%
    16:00 +5°C° 0 mm 4 mps 737 mmHg 78%
    17:00 +4°C° 0 mm 4 mps 737 mmHg 78%
    18:00 +4°C° 0 mm 4 mps 738 mmHg 78%
    19:00 +4°C° 0 mm 4 mps 738 mmHg 78%
    20:00 +4°C° 0 mm 4 mps 738 mmHg 78%
    21:00 +4°C° 0 mm 3 mps 738 mmHg 79%
    22:00 +4°C° 0 mm 3 mps 738 mmHg 79%
    23:00 +5°C° 0 mm 3 mps 739 mmHg 79%

    Day after tomorrow, 13 December, Wednesday

    Time Temperature Precipitation Wind Pressure Humidity
    00:00 +5°C° 0 mm 3 mps 739 mmHg 79%
    01:00 +5°C° 0 mm 3 mps 739 mmHg 79%
    02:00 +6°C° 0 mm 2 mps 739 mmHg 79%
    03:00 +5°C° 0 mm 2 mps 739 mmHg 80%
    04:00 +5°C° 0 mm 2 mps 739 mmHg 81%
    05:00 +5°C° 0 mm 2 mps 738 mmHg 81%
    06:00 +5°C° 0 mm 2 mps 739 mmHg 83%
    07:00 +5°C° 0 mm 1 mps 739 mmHg 84%
    08:00 +5°C° 0 mm 1 mps 739 mmHg 85%
    09:00 +6°C° 0 mm 1 mps 739 mmHg 85%
    10:00 +5°C° 0 mm 2 mps 739 mmHg 85%
    11:00 +6°C° 0 mm 2 mps 740 mmHg 85%
    12:00 +4°C° 0 mm 3 mps 740 mmHg 85%
    13:00 +4°C° 0 mm 3 mps 739 mmHg 86%
    14:00 +4°C° 0 mm 4 mps 739 mmHg 86%
    15:00 +4°C° 0.1 mm 4 mps 739 mmHg 87%
    16:00 +3°C° 0.1 mm 4 mps 739 mmHg 89%
    17:00 +1°C° 0.1 mm 4 mps 739 mmHg 90%
    18:00 +2°C° 0.3 mm 3 mps 739 mmHg 91%
    19:00 +2°C° 0.3 mm 3 mps 739 mmHg 91%
    20:00 +2°C° 0.3 mm 3 mps 739 mmHg 92%
    21:00 +1°C° 0.2 mm 3 mps 739 mmHg 92%
    22:00 +1°C° 0.2 mm 3 mps 739 mmHg 93%
    23:00 +2°C° 0.2 mm 2 mps 738 mmHg 93%

    14 December, Thursday

    Time Temperature Precipitation Wind Pressure Humidity
    00:00 +2°C° 0.2 mm 2 mps 738 mmHg 93%
    01:00 +2°C° 0.2 mm 2 mps 738 mmHg 94%
    02:00 +2°C° 0.2 mm 2 mps 738 mmHg 94%
    03:00 +2°C° 0.4 mm 2 mps 737 mmHg 95%
    04:00 +2°C° 0.4 mm 2 mps 737 mmHg 96%
    05:00 +2°C° 0.4 mm 1 mps 736 mmHg 97%
    06:00 +3°C° 0 mm 1 mps 736 mmHg 97%
    07:00 +3°C° 0 mm 1 mps 736 mmHg 97%
    08:00 +2°C° 0 mm 0 mps 736 mmHg 97%
    09:00 +2°C° 0 mm 0 mps 736 mmHg 96%
    10:00 +3°C° 0 mm 1 mps 736 mmHg 94%
    11:00 +4°C° 0 mm 1 mps 736 mmHg 92%
    12:00 +4°C° 0 mm 1 mps 736 mmHg 91%
    13:00 +5°C° 0 mm 1 mps 735 mmHg 89%
    14:00 +4°C° 0 mm 2 mps 735 mmHg 87%
    15:00 +4°C° 0 mm 2 mps 735 mmHg 89%
    16:00 +3°C° 0 mm 2 mps 735 mmHg 91%
    17:00 +2°C° 0 mm 2 mps 735 mmHg 93%
    18:00 +2°C° 0 mm 2 mps 735 mmHg 93%
    19:00 +2°C° 0 mm 2 mps 735 mmHg 94%
    20:00 +2°C° 0 mm 2 mps 735 mmHg 94%
    21:00 +2°C° 0 mm 2 mps 734 mmHg 94%
    22:00 +2°C° 0 mm 2 mps 734 mmHg 95%
    23:00 +1°C° 0 mm 3 mps 734 mmHg 95%

    15 December, Friday

    Time Temperature Precipitation Wind Pressure Humidity
    00:00 +1°C° 0 mm 3 mps 734 mmHg 95%
    01:00 +1°C° 0 mm 3 mps 733 mmHg 95%
    02:00 +1°C° 0 mm 3 mps 733 mmHg 95%
    03:00 +1°C° 0.1 mm 3 mps 732 mmHg 95%
    04:00 +1°C° 0.1 mm 3 mps 732 mmHg 95%
    05:00 0°C° 0.1 mm 4 mps 731 mmHg 95%
    06:00 0°C° 0.1 mm 4 mps 731 mmHg 94%
    07:00 0°C° 0.1 mm 4 mps 731 mmHg 94%
    08:00 0°C° 0.1 mm 5 mps 731 mmHg 93%
    09:00 +1°C° 0.1 mm 5 mps 730 mmHg 88%
    10:00 +2°C° 0.1 mm 6 mps 730 mmHg 83%
    11:00 +3°C° 0.1 mm 6 mps 730 mmHg 77%
    12:00 +4°C° 0 mm 6 mps 730 mmHg 74%
    13:00 +5°C° 0 mm 6 mps 730 mmHg 70%
    14:00 +7°C° 0 mm 6 mps 730 mmHg 66%
    15:00 +6°C° 0 mm 5 mps 730 mmHg 70%
    16:00 +6°C° 0 mm 5 mps 731 mmHg 74%
    17:00 +5°C° 0 mm 5 mps 731 mmHg 78%
    18:00 +5°C° 0 mm 4 mps 731 mmHg 80%
    19:00 +5°C° 0 mm 4 mps 731 mmHg 81%
    20:00 +4°C° 0 mm 3 mps 732 mmHg 83%
    21:00 +4°C° 0 mm 3 mps 732 mmHg 84%
    22:00 +5°C° 0 mm 2 mps 731 mmHg 85%
    23:00 +5°C° 0 mm 2 mps 731 mmHg 85%

    16 December, Saturday

    Time Temperature Precipitation Wind Pressure Humidity
    00:00 +4°C° 0 mm 3 mps 731 mmHg 85%
    01:00 +4°C° 0 mm 4 mps 730 mmHg 85%
    02:00 +3°C° 0 mm 5 mps 730 mmHg 85%
    03:00 +3°C° 0.1 mm 6 mps 729 mmHg 86%
    04:00 +4°C° 0.1 mm 6 mps 728 mmHg 88%
    05:00 +4°C° 0.1 mm 7 mps 727 mmHg 89%
    06:00 +5°C° 0.2 mm 7 mps 727 mmHg 89%
    07:00 +5°C° 0.2 mm 7 mps 727 mmHg 88%
    08:00 +5°C° 0.2 mm 7 mps 727 mmHg 87%
    09:00 +6°C° 0 mm 7 mps 727 mmHg 83%
    10:00 +8°C° 0 mm 7 mps 728 mmHg 78%
    11:00 +8°C° 0 mm 6 mps 728 mmHg 73%
    12:00 +8°C° 0 mm 6 mps 728 mmHg 73%
    13:00 +8°C° 0 mm 5 mps 728 mmHg 73%
    14:00 +8°C° 0 mm 4 mps 729 mmHg 72%
    15:00 +8°C° 0.1 mm 4 mps 729 mmHg 77%
    16:00 +8°C° 0.1 mm 3 mps 729 mmHg 82%
    17:00 +7°C° 0.1 mm 3 mps 729 mmHg 86%
    18:00 +7°C° 0.2 mm 2 mps 729 mmHg 88%
    19:00 +7°C° 0.2 mm 2 mps 730 mmHg 89%
    20:00 +7°C° 0.2 mm 2 mps 730 mmHg 90%
    21:00 +7°C° 0.1 mm 2 mps 730 mmHg 91%
    22:00 +6°C° 0.1 mm 2 mps 730 mmHg 92%
    23:00 +6°C° 0.1 mm 2 mps 730 mmHg 92%
    Show more